User: anonymous
Location: Caltech
(34.1382°N, 118.1253°W)
Time: 14:15:03
(UTC-07:00)
Language:

Cosmos 2237 Rocket - Orbit

View from above orbital plane
View from above orbital plane
View from above satellite
View from above satellite

Ground track
Ground track

The orbit data is extracted from the following two-line orbital elements,

1 22566U 93016B   14210.32853956 -.00000271  00000-0 -11542-3 0  1113
2 22566 071.0089 118.8807 0012684 293.8185 066.1608 14.14850276102208
Epoch (UTC): 29 July 2014 07:53:05
Eccentricity: 0.0012684
inclination: 71.0089°
perigee height: 833 km
apogee height: 852 km
right ascension of ascending node: 118.8807°
argument of perigee: 293.8185°
revolutions per day: 14.14850276
mean anomaly at epoch: 66.1608°
orbit number at epoch: 10220

The dashed part of the orbit path shows where the satellite is in the earth's shadow,  

DLR